Wind_Speed
39 36 33 32 28 26 24 25 26 24 24 19 13 16 13 8 8 8 6 7 5 4 8 15 19 20 18 19 18 17 15 12 12 11 12 13 16 15 15 14 12 14 15 14
44 38 28 33 35 31 29 30 30 22 24 17 20 12 11 8 4 2 2 3 5 6 6 16 21 23 21 23 22 19 16 13 13 11 12 12 15 15 14 13 11 13 15 15
46 36 32 33 37 37 34 33 28 23 25 23 20 13 13 15 8 6 2 4 4 4 9 15 24 26 24 25 25 21 17 14 12 12 11 11 13 13 14 11 11 14 16 17
45 39 39 38 39 41 40 34 29 26 22 27 23 22 17 17 12 10 7 5 5 5 7 17 27 29 26 29 27 22 18 16 12 11 10 10 11 12 12 10 10 12 14 15
46 41 43 43 38 41 42 34 30 23 23 27 31 29 21 15 13 6 2 8 6 2 7 17 25 29 29 29 27 24 20 17 14 12 10 9 9 11 11 9 10 12 13 13
43 43 47 46 39 41 40 40 35 31 27 32 32 33 22 16 7 7 1 7 7 3 4 16 27 31 28 29 29 26 22 19 15 13 10 9 9 9 12 9 9 11 13 12
44 43 45 47 45 44 45 46 41 40 35 20 25 28 24 23 15 8 3 3 5 7 7 13 20 27 29 27 28 26 23 20 17 14 12 9 8 8 9 9 7 11 10 9
50 47 46 45 48 46 46 48 53 46 34 29 24 35 23 22 17 11 9 8 8 11 8 13 22 26 29 28 28 28 25 22 19 16 14 10 9 8 7 7 6 9 7 7
54 50 44 45 43 49 45 50 47 47 41 44 33 26 25 21 17 14 11 13 14 18 14 16 23 26 30 34 32 29 27 24 21 19 15 12 10 9 7 6 6 7 7 7
58 54 46 40 44 49 49 45 47 52 48 46 36 33 27 21 16 14 12 17 26 20 16 17 22 24 30 34 34 33 30 26 23 20 17 14 12 9 8 6 5 5 7 7
58 57 50 46 50 48 49 51 51 52 51 47 40 42 30 21 15 13 4 6 5 16 22 20 22 23 28 35 36 34 32 28 23 21 19 16 12 10 8 6 5 4 5 5
55 57 52 51 46 47 48 50 50 53 52 49 45 45 30 27 18 14 8 8 3 5 15 19 22 27 29 31 34 35 32 28 24 22 20 17 16 13 10 9 7 6 7 7
54 55 55 51 50 50 52 52 53 54 53 53 49 44 36 32 24 19 14 10 9 3 18 23 23 25 30 31 33 35 32 29 27 23 21 19 17 15 13 10 9 8 9 9
47 56 57 52 51 55 55 55 55 57 55 52 53 44 41 33 26 24 20 17 11 10 25 23 23 24 29 34 35 37 34 31 29 25 22 19 18 17 16 15 12 11 11 12
49 53 57 56 49 53 51 53 55 56 56 55 48 47 43 38 30 30 27 20 19 18 28 24 20 24 28 34 38 39 37 34 30 27 24 21 21 21 18 16 15 14 13 15
54 53 52 55 52 50 51 53 54 53 54 54 50 49 43 41 36 34 31 26 26 13 32 28 26 31 35 35 41 42 39 35 31 29 25 24 23 21 19 19 18 17 17 16
61 57 53 53 54 52 52 54 51 54 55 54 52 45 47 44 44 38 35 31 23 12 27 33 33 34 37 38 44 45 42 39 34 29 28 26 24 21 21 23 20 17 16 18
63 61 59 52 52 54 52 53 54 56 57 56 51 44 43 46 40 38 37 32 28 27 19 37 37 35 36 37 45 47 46 42 36 30 27 26 24 23 23 23 20 18 17 17
57 58 61 55 52 55 52 53 56 56 52 50 51 48 39 40 42 40 37 36 29 25 28 34 38 38 39 39 43 48 47 41 36 30 27 26 24 24 24 21 20 19 17 17
51 53 56 60 54 56 55 53 58 57 46 44 47 45 41 40 45 38 35 35 23 16 19 30 38 37 38 39 43 48 46 41 35 30 28 27 26 26 24 23 22 23 17 14
60 49 48 53 55 57 58 51 57 57 51 43 44 39 38 42 42 41 35 35 27 18 22 25 34 36 36 39 42 41 39 36 32 30 29 30 28 26 26 27 25 22 18 15
58 56 51 56 58 52 60 52 53 57 50 43 37 42 38 43 43 44 35 36 34 30 21 27 26 27 31 40 39 35 31 30 32 32 33 30 28 28 28 29 25 22 19 16
42 60 56 55 54 54 59 60 48 52 51 47 38 37 43 35 39 43 43 42 37 30 28 35 28 31 35 36 34 32 35 33 31 30 30 30 30 30 29 29 27 25 22 19
42 56 60 52 51 53 48 59 60 48 51 48 43 38 40 39 35 40 44 44 39 29 32 34 31 31 34 36 34 33 35 33 32 31 31 32 31 30 30 31 30 28 24 22
40 49 56 59 53 54 44 46 62 56 50 51 42 40 41 43 43 38 37 42 41 33 25 28 31 33 34 34 34 38 38 36 34 33 33 31 31 32 34 36 36 33 31 28
35 40 51 62 60 53 50 48 46 61 49 50 45 43 43 42 44 42 41 39 37 35 34 35 37 37 36 35 35 38 38 37 36 35 32 31 32 32 34 34 35 35 34 34
Wind_Direction
216 219 204 209 209 212 220 226 217 205 205 196 208 214 176 186 168 150 140 136 154 165 184 199 190 177 171 168 168 166 156 143 125 113 99 90 79 79 83 91 93 101 98 92
221 220 205 206 213 214 220 217 218 218 223 223 217 218 207 175 56 16 248 236 161 158 183 192 192 181 178 172 174 170 159 146 129 119 99 94 87 84 83 94 98 101 98 90
225 222 210 209 213 213 220 225 216 231 227 232 215 188 196 177 150 130 90 307 281 232 175 189 189 183 178 176 177 172 163 151 136 123 107 104 99 96 91 94 93 93 92 89
227 220 217 211 211 212 217 221 214 225 242 238 220 193 190 171 146 115 70 355 314 287 218 182 192 183 182 179 178 173 164 158 147 133 122 114 109 104 96 92 95 92 92 92
222 220 220 217 213 215 214 220 220 224 234 228 215 207 187 174 138 137 331 323 314 293 258 181 187 191 185 179 179 177 171 163 156 146 137 126 120 117 110 101 98 94 93 88
222 214 216 219 212 215 213 218 222 222 228 225 203 192 186 173 189 186 185 280 304 270 248 200 189 189 188 185 182 179 173 170 165 156 150 138 128 125 132 123 104 94 88 89
224 218 212 218 213 211 211 211 222 222 223 211 194 197 186 187 191 192 221 244 254 245 212 209 197 195 187 191 189 182 177 174 172 167 161 153 140 127 130 133 125 106 99 94
223 219 215 213 212 214 214 214 220 220 214 187 202 199 180 189 204 208 241 237 214 205 238 214 199 197 194 192 196 192 183 180 177 175 172 167 152 133 126 137 155 122 118 111
223 221 216 214 212 212 210 217 219 225 222 223 227 203 191 191 202 227 247 257 238 244 225 220 205 197 195 193 193 194 192 185 182 182 178 175 165 153 148 145 160 141 144 133
218 219 213 212 212 210 210 214 216 222 222 225 219 214 199 191 203 238 274 281 257 230 212 215 199 191 197 193 192 194 195 190 188 183 182 181 177 167 158 162 156 163 152 152
219 221 214 209 213 209 206 209 215 219 223 225 221 224 208 190 194 206 138 278 318 225 205 214 193 192 198 197 194 195 194 195 192 185 185 188 183 176 175 170 177 173 185 174
222 221 214 213 217 211 208 208 214 220 222 226 223 221 210 200 204 182 202 159 114 296 211 217 206 193 197 204 201 198 196 196 196 193 187 192 188 180 176 181 196 196 202 203
227 220 216 213 211 214 210 206 210 217 222 223 221 218 211 207 213 206 210 224 204 219 227 206 214 200 198 208 204 201 200 198 199 198 191 194 194 194 192 192 204 210 224 223
233 227 219 210 212 214 213 209 208 214 221 223 225 219 212 217 215 224 223 236 258 248 216 205 209 212 202 206 209 201 200 202 203 201 199 197 200 204 203 200 209 219 230 241
227 233 226 217 209 214 217 214 212 214 220 225 221 222 215 218 218 227 231 240 249 252 202 199 204 218 219 208 211 206 202 202 205 204 204 203 205 209 207 205 208 221 228 237
228 228 232 223 208 212 212 215 217 217 222 226 224 221 219 219 220 224 235 237 241 240 213 215 219 221 219 213 208 208 205 205 207 205 207 211 212 212 207 208 211 222 228 241
230 225 226 225 214 212 210 210 213 219 223 226 228 223 219 222 223 226 233 242 248 248 221 219 226 222 224 216 210 205 204 204 207 208 212 217 217 216 215 214 215 222 229 232
223 223 222 221 219 214 209 208 211 216 221 228 229 225 218 219 225 228 237 243 247 244 257 229 223 223 223 224 212 208 205 204 205 210 217 221 222 219 220 222 218 219 221 228
214 217 221 217 219 214 210 209 210 211 216 225 230 225 223 220 221 222 227 243 252 248 268 232 220 222 220 218 214 212 207 205 208 212 222 226 224 220 223 226 218 216 220 223
204 212 218 215 216 215 211 209 210 210 216 223 225 229 225 220 219 220 223 237 236 253 250 204 220 226 222 217 211 212 207 210 212 218 225 228 227 223 222 222 218 211 220 211
213 209 212 216 211 215 211 211 211 209 213 219 224 212 211 215 217 213 223 229 228 237 215 218 223 229 224 219 215 208 209 212 214 216 221 226 226 223 219 219 223 213 210 213
218 210 205 213 213 213 212 208 211 208 210 214 215 217 210 213 213 213 219 227 229 223 232 219 223 219 216 214 214 209 206 210 212 214 220 222 221 221 221 223 224 215 209 216
216 214 205 208 209 209 213 209 208 210 210 209 211 214 208 209 209 212 219 229 233 237 248 217 210 213 211 209 207 208 206 212 214 218 222 221 219 221 222 224 214 216 217 221
212 215 211 203 206 204 212 208 206 204 210 209 206 210 207 200 202 213 222 227 236 241 213 207 205 210 211 208 205 209 212 208 214 215 217 221 223 222 218 220 216 222 227 232
210 212 213 213 206 205 206 208 211 205 205 208 205 206 207 205 208 212 217 224 227 230 216 211 216 213 213 210 206 208 212 211 210 216 220 223 219 216 217 215 218 225 232 238
202 206 212 218 212 210 210 212 214 212 199 203 203 205 206 206 206 210 210 215 223 231 233 231 232 212 206 201 205 211 217 217 217 217 216 216 216 219 221 222 227 236 242 249
Height
5853 5858 5864 5872 5875 5877 5880 5880 5883 5887 5887 5888 5891 5892 5898 5898 5897 5894 5893 5893 5896 5898 5899 5902 5902 5905 5909 5911 5915 5918 5919 5920 5920 5920 5921 5921 5922 5923 5924 5923 5924 5924 5923 5923
5845 5850 5864 5867 5869 5872 5876 5878 5881 5884 5885 5888 5889 5891 5895 5897 5897 5897 5896 5897 5895 5896 5897 5899 5903 5905 5908 5909 5914 5918 5920 5920 5921 5922 5923 5923 5924 5925 5926 5927 5927 5926 5925 5926
5840 5851 5857 5861 5864 5868 5871 5874 5881 5882 5883 5886 5887 5889 5891 5894 5894 5895 5897 5898 5896 5895 5895 5897 5900 5904 5907 5910 5914 5917 5920 5920 5922 5923 5924 5925 5926 5928 5928 5930 5930 5929 5928 5928
5833 5846 5849 5852 5856 5862 5866 5872 5877 5879 5880 5881 5883 5886 5887 5890 5893 5895 5895 5895 5896 5895 5895 5895 5899 5902 5906 5909 5912 5915 5919 5920 5923 5925 5926 5927 5928 5929 5930 5931 5932 5931 5930 5931
5825 5837 5841 5844 5853 5857 5864 5869 5871 5873 5875 5876 5879 5882 5884 5886 5889 5890 5893 5894 5892 5893 5894 5894 5897 5901 5903 5908 5911 5914 5918 5921 5923 5925 5927 5928 5929 5930 5932 5934 5934 5933 5933 5933
5816 5825 5831 5839 5848 5852 5861 5862 5865 5868 5870 5869 5875 5879 5880 5885 5887 5887 5889 5891 5890 5890 5892 5894 5895 5897 5903 5907 5910 5913 5917 5921 5923 5925 5928 5929 5930 5931 5932 5935 5935 5935 5935 5936
5808 5816 5823 5828 5838 5843 5848 5854 5856 5861 5863 5872 5872 5874 5878 5881 5883 5884 5886 5887 5887 5889 5889 5892 5896 5898 5901 5907 5912 5913 5916 5920 5923 5925 5928 5929 5930 5931 5932 5934 5935 5935 5936 5937
5795 5804 5813 5822 5829 5839 5843 5848 5848 5851 5860 5869 5866 5867 5876 5878 5880 5881 5883 5883 5884 5886 5888 5890 5891 5895 5899 5903 5910 5913 5914 5918 5922 5925 5927 5930 5930 5931 5933 5934 5936 5935 5936 5938
5784 5795 5806 5812 5824 5829 5836 5837 5849 5850 5855 5856 5862 5865 5868 5872 5876 5879 5881 5882 5882 5882 5884 5887 5888 5891 5895 5900 5905 5911 5914 5916 5920 5923 5926 5929 5931 5931 5933 5934 5936 5936 5937 5938
5776 5785 5796 5808 5813 5817 5824 5836 5839 5839 5844 5849 5855 5858 5864 5867 5873 5877 5878 5876 5875 5877 5882 5885 5888 5888 5892 5896 5900 5906 5911 5915 5918 5921 5925 5927 5930 5931 5932 5934 5935 5936 5937 5937
5768 5775 5791 5797 5798 5810 5817 5820 5827 5832 5836 5842 5851 5851 5860 5865 5867 5873 5874 5876 5875 5874 5879 5884 5886 5888 5891 5894 5898 5903 5908 5913 5917 5920 5922 5926 5929 5930 5931 5933 5934 5935 5936 5937
5758 5765 5780 5790 5797 5804 5808 5815 5821 5823 5831 5835 5841 5846 5858 5862 5864 5868 5870 5875 5876 5875 5879 5882 5884 5885 5889 5894 5898 5902 5905 5910 5915 5918 5920 5924 5926 5928 5930 5932 5933 5934 5935 5936
5751 5757 5770 5778 5788 5793 5797 5804 5811 5816 5821 5825 5833 5842 5851 5856 5859 5863 5866 5869 5872 5874 5875 5877 5881 5885 5889 5891 5895 5899 5903 5907 5912 5916 5918 5921 5924 5927 5929 5930 5931 5933 5934 5935
5744 5749 5759 5770 5778 5782 5790 5796 5801 5806 5811 5819 5824 5838 5846 5850 5854 5857 5861 5864 5865 5869 5871 5875 5877 5881 5884 5888 5892 5896 5900 5903 5908 5912 5916 5918 5922 5925 5926 5927 5929 5931 5932 5933
5738 5741 5751 5760 5771 5777 5785 5793 5796 5800 5806 5810 5824 5828 5839 5844 5849 5853 5855 5858 5861 5862 5867 5871 5873 5876 5879 5884 5888 5892 5895 5899 5904 5908 5912 5915 5918 5921 5923 5925 5926 5928 5929 5930
5727 5734 5742 5752 5762 5768 5778 5785 5790 5798 5801 5806 5813 5820 5833 5839 5841 5846 5850 5853 5856 5858 5862 5866 5869 5871 5872 5876 5881 5887 5891 5896 5901 5904 5908 5911 5914 5917 5919 5921 5923 5925 5926 5928
5716 5724 5733 5742 5752 5760 5770 5777 5785 5789 5793 5799 5805 5815 5823 5828 5834 5839 5844 5848 5851 5853 5858 5861 5865 5867 5869 5873 5877 5881 5886 5890 5897 5901 5903 5907 5910 5914 5916 5917 5919 5921 5923 5924
5703 5713 5723 5733 5742 5750 5761 5769 5775 5779 5785 5791 5798 5806 5814 5822 5830 5834 5839 5842 5845 5849 5853 5857 5859 5862 5866 5870 5874 5876 5879 5884 5890 5895 5899 5903 5906 5910 5911 5913 5916 5917 5919 5920
5692 5701 5711 5723 5732 5743 5752 5759 5764 5769 5778 5784 5791 5800 5809 5816 5822 5825 5833 5837 5841 5845 5845 5846 5853 5855 5858 5863 5869 5873 5876 5880 5885 5889 5895 5899 5902 5905 5906 5909 5912 5914 5916 5917
5680 5688 5700 5714 5723 5733 5740 5750 5756 5762 5772 5778 5786 5795 5802 5809 5813 5823 5827 5831 5836 5838 5838 5840 5845 5849 5854 5858 5861 5868 5871 5876 5880 5885 5890 5894 5897 5899 5902 5904 5907 5909 5912 5913
5666 5676 5688 5700 5712 5721 5731 5742 5748 5759 5768 5772 5780 5789 5795 5801 5809 5817 5818 5823 5828 5831 5833 5836 5838 5846 5850 5854 5860 5865 5869 5874 5875 5878 5883 5887 5891 5894 5896 5898 5901 5905 5908 5909
5657 5667 5680 5692 5702 5712 5721 5734 5742 5751 5760 5767 5774 5780 5788 5794 5802 5809 5813 5816 5821 5825 5827 5831 5836 5839 5843 5850 5856 5859 5865 5866 5868 5872 5877 5881 5884 5887 5890 5893 5897 5900 5903 5905
5651 5659 5671 5683 5692 5703 5712 5723 5733 5743 5751 5760 5767 5771 5780 5788 5794 5802 5805 5810 5815 5820 5823 5825 5829 5836 5841 5845 5850 5854 5853 5858 5862 5866 5871 5875 5877 5880 5884 5888 5891 5895 5897 5900
5638 5649 5662 5676 5684 5694 5702 5713 5723 5732 5743 5752 5760 5765 5771 5780 5786 5792 5797 5803 5810 5816 5820 5822 5825 5831 5837 5840 5844 5846 5848 5850 5854 5858 5862 5867 5871 5875 5878 5882 5885 5889 5892 5894
5633 5644 5658 5669 5679 5687 5696 5704 5713 5723 5734 5745 5753 5759 5764 5771 5778 5782 5789 5796 5803 5809 5815 5819 5824 5827 5832 5836 5837 5837 5840 5844 5848 5852 5856 5861 5864 5867 5871 5874 5878 5882 5885 5887
5630 5639 5650 5662 5671 5679 5688 5697 5705 5715 5726 5738 5746 5753 5758 5762 5769 5774 5780 5787 5795 5800 5806 5813 5817 5821 5826 5829 5832 5834 5835 5839 5842 5845 5849 5854 5859 5862 5865 5869 5872 5875 5878 5880